Weather Roundup
Issued by NWS

Home | Current Version | Previous Version | Text Only | Print | Product List | Glossary On
Versions: 1 2 3 4 5 6 7 8 9 10 11 12 13 14 15 16 17 18 19 20 21 22 23 24 25 26 27 28 29 30 31 32 33 34 35 36 37 38 39 40 41 42 43 44 45 46 47 48 49 50
000
NZUS93 KARX 051559
HRRWXR

CURRENT HOURLY OBSERVATIONS ACROSS
MUCH OF THE UPPER MISSISSIPPI VALLEY
NATIONAL WEATHER SERVICE LA CROSSE WI
1100 AM CDT THU MAY 05 2016


...SOUTHEAST MINNESOTA...


CITY           SKY/WX    TMP DP  RH WIND       PRES   REMARKS
ROCHESTER      CLOUDY    53  34  48 SW7       30.09F
ROCHESTER/MAYO PTSUNNY   55  33  43 S7        30.08F
WINONA         SUNNY     55  34  44 CALM      30.08S
AUSTIN         CLOUDY    55  34  44 CALM      30.09S
ALBERT LEA     SUNNY     61  30  31 SW5       30.09S
DODGE CENTER   CLOUDY    55  32  41 S7        30.08F
PRESTON        CLOUDY    55  34  45 W5        30.09S
OWATONNA       MOSUNNY   61  28  29 S9        30.07F
FARIBAULT      NOT AVBL
$$

...ELSEWHERE IN MINNESOTA...


CITY           SKY/WX    TMP DP  RH WIND       PRES   REMARKS
MINNEAPOLIS    MOSUNNY   61  29  29 SW10      30.05F
INTNL FALLS    SUNNY     69  37  30 S13G22    29.83F
DULUTH         MOSUNNY   58  37  45 W14       29.96F
RED WING       PTSUNNY   57  36  44 S3        30.07S
REDWOOD FALLS  MOSUNNY   68  32  26 S7        30.03F
MANKATO        SUNNY     63  28  27 S8        30.08S
WORTHINGTON    SUNNY     64  35  34 SW7       30.08S
FAIRMONT       SUNNY     61  32  33 SW10      30.07F
$$

...SOUTHWEST WISCONSIN...


CITY           SKY/WX    TMP DP  RH WIND       PRES   REMARKS
LA CROSSE      SUNNY     56  35  45 VRB5      30.07F
PRAIRIE DU CHI SUNNY     55  34  45 NW8       30.08S
BOSCOBEL       SUNNY     58  36  43 W3        30.07F
LONE ROCK      NOT AVBL
PLATTEVILLE    SUNNY     53  39  59 NW9       30.07S
FORT MC COY    SUNNY     55  35  47 N6        30.08F
MAUSTON-NEW LI SUNNY     53  37  54 NW7       30.06S
VIROQUA        FAIR      53  36  52 CALM      30.07S
WIS DELLS      SUNNY     53  32  45 N3        30.06S
$$

...ELSEWHERE IN WISCONSIN...


CITY           SKY/WX    TMP DP  RH WIND       PRES   REMARKS
MILWAUKEE      SUNNY     50  39  66 N8        30.04R
MADISON        SUNNY     53  36  52 N3        30.05S
GREEN BAY      SUNNY     53  37  54 E5        30.04F
EAU CLAIRE     NOT AVBL
BLACK RVR FLS  FAIR      56  32  40 W5        30.07F
MEDFORD        MOSUNNY   52  36  54 CALM      30.05S
WAUSAU         SUNNY     55  34  45 W5        30.03F
WIS RAPIDS     SUNNY     56  33  42 NW7       30.06F
MARSHFIELD     SUNNY     57  35  43 W7        30.04F
RICE LAKE      SUNNY     58  30  33 SW6       30.06F
$$

...NORTHEAST IOWA...


CITY           SKY/WX    TMP DP  RH WIND       PRES   REMARKS
WATERLOO       CLOUDY    54  34  46 NW6       30.10S
DUBUQUE        SUNNY     54  39  57 NE8       30.07S
DECORAH        SUNNY     55  36  47 VRB6      30.08S
MASON CITY     MOSUNNY  N/A N/A N/A VRB5      30.10F
CHARLES CITY   CLOUDY    54  34  47 CALM      30.11S
OELWEIN        PTSUNNY   55  36  47 N8        30.10S
$$

...ELSEWHERE IN IOWA...


CITY           SKY/WX    TMP DP  RH WIND       PRES   REMARKS
DES MOINES     CLOUDY    61  31  32 E3        30.11R
IOWA CITY      SUNNY     58  39  49 N8        30.10S
FORT DODGE     SUNNY     61  36  39 S6        30.10F
MARSHALLTOWN   CLOUDY    57  34  41 NE7       30.10R
CEDAR RAPIDS   SUNNY     57  40  52 NW8       30.08S
$$

...NORTHERN ILLINOIS...


CITY           SKY/WX    TMP DP  RH WIND       PRES   REMARKS
CHICAGO-OHARE  SUNNY     54  40  59 NE15      30.01R
CHICAGO-MIDWAY SUNNY     54  40  59 N13       30.01R
MOLINE         SUNNY     55  37  50 NE8       30.07R
ROCKFORD       SUNNY     56  39  53 N10       30.06S
PEORIA         SUNNY     54  41  61 N13G20    30.04S
$$

NOTE: "FAIR" INDICATES FEW OR NO CLOUDS BELOW 12,000 FEET WITH NO
SIGNIFICANT WEATHER AND/OR OBSTRUCTIONS TO VISIBILITY. WIND
SPEEDS ARE IN MILES-PER-HOUR.




USA.gov is the U.S. government's official web portal to all federal, state and local government web resources and services.